Location: Bocianicha
(51.5066°N, 19.2563°E)
Time: 13:12:36
(UTC+00:00)

Cosmos 292 Rocket - Pass Details

Date: 15 June 2025
Orbit: 664 x 683 km, 74.0° (Epoch: 18 July)

Event Time Altitude Azimuth Distance (km) Brightness Sun altitude
Exits shadow 00:51:58 10° 182° (S) 2,129 5.8 -10.0°
Reaches altitude 10° 00:51:59 10° 182° (S) 2,121 5.8 -10.0°
Maximum altitude 00:56:35 50° 108° (ESE) 870 4.4 -9.7°
Drops below altitude 10° 01:01:14 10° 33° (NNE) 2,138 8.0 -9.3°
Sets 01:03:36 0° 29° (NNE) 3,057 9.5 -9.1°
